Погода в Тефе

Бразилия     3°22′02″S   64°43′09″W
темп.,
°C
ветер,
м/с
пор.,
м/с
влажн.,
%
обл.,
%
осадки,
мм/ч
давл.,
гПа
погр.,
м
26 февраля, пт
пт2623:00+24юв1199100 0.0 101024
02:00+23вюв1199100 0.0 100823
05:00+24юв1198100 0.0 100725
08:00+25юв1295100 0.4 1009142
11:00+26в2594100 5.3 1011367
14:00+29всв248199 9.1 1007853
17:00+29всв147862 1.3 1005952
20:00+24св129365 1.6 100724
27 февраля, сб
сб2723:00+23всв399582 1.4 1010355
02:00+22всв159991 7.1 1008206
05:00+22в1197100 0.1 100829
08:00+23всв1597100 0.2 1009192
11:00+27всв148098 0.0 1011440
14:00+31св356175 0.9 10061294
17:00+28в238322 1.7 1005627
20:00+24всв119644 2.8 100724
28 февраля, вс
вс2823:00+24всв019797 0.3 100824
02:00+23всв019899 0.4 100724
05:00+23юв0198100 0.4 100624
08:00+24в1296100 0.7 1009101
11:00+26юз019598 4.1 1009152
14:00+26зсз119399 8.5 1006218
17:00+27св128972 3.3 1004350
20:00+24вюв119660 4.0 100624
1 марта, пн
пн123:00+23в119753 0.0 100724
02:00+23в149953 0.1 1006113
05:00+22в159991 0.1 1005215
08:00+23всв179895 1.1 1008354
11:00+24в2596100 0.9 1009367
14:00+24вюв1397100 2.3 1007206
17:00+24в1397100 1.4 1005233
20:00+23сз1399100 2.6 1007141
2 марта, вт
вт223:00+22зсз12100100 3.3 100988
02:00+22з0098100 4.6 100725
05:00+22з0198100 0.1 100723
08:00+22юз0198100 0.1 100939
11:00+26в018497 0.0 1011468
14:00+28зюз118197 1.4 1008591
17:00+27з138882 2.4 1007547
20:00+24зюз139990 3.6 1009110